| time (UTC) | temp F | wind direction | speed MPH | gust MPH | rain 1hr in | rain 24hr in | rain mn in | humidity % | barometer mb |
| 20260506162804 | 59 | 4 | 5.0 | 8.0 | 0.00 | 0.21 | 0.19 | 83 | 1014.4 |
| 20260506160803 | 60 | 356 | 6.0 | 10.0 | 0.00 | 0.21 | 0.19 | 83 | 1014.7 |
| 20260506160305 | 60 | 354 | 7.0 | 9.0 | 0.00 | 0.21 | 0.19 | 83 | 1014.6 |
| 20260506153803 | 60 | 349 | 6.0 | 8.0 | 0.00 | 0.21 | 0.19 | 82 | 1014.8 |
| 20260506153306 | 60 | 6 | 6.0 | 8.0 | 0.00 | 0.21 | 0.19 | 82 | 1014.8 |
| 20260506152305 | 60 | 352 | 9.0 | 12.0 | 0.00 | 0.21 | 0.19 | 81 | 1014.9 |
| 20260506151806 | 60 | 347 | 7.0 | 10.0 | 0.00 | 0.21 | 0.19 | 81 | 1014.9 |
| 20260506151303 | 60 | 2 | 7.0 | 10.0 | 0.00 | 0.21 | 0.19 | 82 | 1014.9 |
| 20260506150805 | 60 | 1 | 7.0 | 9.0 | 0.00 | 0.21 | 0.19 | 81 | 1014.8 |
| 20260506145803 | 60 | 4 | 7.0 | 9.0 | 0.00 | 0.21 | 0.19 | 82 | 1014.9 |
| 20260506144806 | 60 | 358 | 7.0 | 9.0 | 0.00 | 0.21 | 0.19 | 82 | 1015.0 |
| 20260506143306 | 60 | 0 | 9.0 | 12.0 | 0.00 | 0.21 | 0.19 | 81 | 1015.0 |
| 20260506142803 | 60 | 342 | 9.0 | 14.0 | 0.00 | 0.21 | 0.19 | 80 | 1015.0 |
| 20260506134807 | 60 | 314 | 7.0 | 12.0 | 0.00 | 0.37 | 0.19 | 81 | 1015.3 |
| 20260506134303 | 60 | 317 | 9.0 | 12.0 | 0.00 | 0.53 | 0.19 | 80 | 1015.3 |
| 20260506133307 | 59 | 6 | 6.0 | 12.0 | 0.00 | 0.53 | 0.19 | 81 | 1015.4 |
| 20260506132306 | 59 | 322 | 6.0 | 10.0 | 0.00 | 0.53 | 0.19 | 82 | 1015.4 |
| 20260506131304 | 59 | 341 | 9.0 | 13.0 | 0.00 | 0.53 | 0.19 | 82 | 1015.3 |
| 20260506130306 | 58 | 318 | 10.0 | 14.0 | 0.00 | 0.53 | 0.19 | 82 | 1015.4 |
| 20260506124303 | 59 | 345 | 8.0 | 13.0 | 0.00 | 0.53 | 0.19 | 81 | 1015.5 |
| 20260506123306 | 59 | 335 | 7.0 | 12.0 | 0.00 | 0.53 | 0.19 | 79 | 1015.5 |
| 20260506122804 | 59 | 320 | 7.0 | 14.0 | 0.00 | 0.53 | 0.19 | 79 | 1015.5 |
| 20260506122306 | 59 | 300 | 8.0 | 12.0 | 0.00 | 0.53 | 0.19 | 79 | 1015.5 |
| 20260506120803 | 59 | 314 | 8.0 | 14.0 | 0.00 | 0.53 | 0.19 | 78 | 1015.3 |
| 20260506114806 | 59 | 275 | 7.0 | 12.0 | 0.00 | 0.53 | 0.19 | 80 | 1015.3 |
| 20260506112803 | 59 | 313 | 9.0 | 15.0 | 0.00 | 0.53 | 0.19 | 82 | 1015.4 |
| 20260506111806 | 59 | 304 | 8.0 | 15.0 | 0.00 | 0.53 | 0.19 | 82 | 1015.5 |
| 20260506110306 | 59 | 314 | 8.0 | 15.0 | 0.00 | 0.53 | 0.19 | 81 | 1015.3 |
| 20260506105305 | 59 | 284 | 10.0 | 15.0 | 0.00 | 0.53 | 0.19 | 81 | 1015.4 |
| 20260506103803 | 58 | 264 | 7.0 | 14.0 | 0.00 | 0.53 | 0.19 | 84 | 1015.2 |
| 20260506103306 | 58 | 294 | 5.0 | 13.0 | 0.00 | 0.53 | 0.19 | 84 | 1015.2 |
| 20260506100306 | 57 | 248 | 3.0 | 8.0 | 0.01 | 0.53 | 0.19 | 87 | 1015.2 |
| 20260506095803 | 57 | 269 | 8.0 | 13.0 | 0.01 | 0.53 | 0.19 | 87 | 1015.2 |
| 20260506092804 | 56 | 252 | 8.0 | 15.0 | 0.02 | 0.53 | 0.19 | 87 | 1015.1 |
| 20260506090804 | 56 | 258 | 9.0 | 14.0 | 0.04 | 0.52 | 0.18 | 87 | 1015.1 |
| 20260506084807 | 56 | 279 | 8.0 | 13.0 | 0.06 | 0.52 | 0.18 | 86 | 1014.9 |
| 20260506083804 | 56 | 272 | 5.0 | 8.0 | 0.05 | 0.51 | 0.17 | 86 | 1014.9 |
| 20260506083306 | 56 | 259 | 3.0 | 6.0 | 0.05 | 0.51 | 0.17 | 85 | 1015.0 |
| 20260506071806 | 57 | 259 | 9.0 | 16.0 | 0.00 | 0.46 | 0.13 | 82 | 1014.6 |
| 20260506071303 | 57 | 251 | 6.0 | 13.0 | 0.00 | 0.46 | 0.13 | 82 | 1014.5 |
| 20260506062305 | 55 | 228 | 7.0 | 12.0 | 0.00 | 0.46 | 0.13 | 84 | 1014.2 |
| 20260506061806 | 55 | 235 | 7.0 | 12.0 | 0.00 | 0.46 | 0.13 | 84 | 1014.1 |
| 20260506061304 | 55 | 230 | 7.0 | 12.0 | 0.00 | 0.46 | 0.13 | 84 | 1014.1 |
| 20260506050306 | 54 | 212 | 9.0 | 14.0 | 0.01 | 0.46 | 0.13 | 86 | 1013.9 |
| 20260506043803 | 55 | 231 | 7.0 | 15.0 | 0.01 | 0.46 | 0.13 | 86 | 1014.0 |
| 20260506042305 | 54 | 219 | 7.0 | 12.0 | 0.00 | 0.46 | 0.12 | 86 | 1013.9 |
| 20260506035804 | 54 | 230 | 9.0 | 13.0 | 0.06 | 0.46 | 0.12 | 88 | 1014.0 |
| 20260506035306 | 54 | 221 | 7.0 | 14.0 | 0.08 | 0.46 | 0.12 | 88 | 1014.1 |
| 20260506034806 | 53 | 223 | 7.0 | 16.0 | 0.08 | 0.46 | 0.12 | 88 | 1014.1 |
| 20260506033804 | 53 | 221 | 7.0 | 13.0 | 0.08 | 0.46 | 0.12 | 88 | 1014.1 |
| 20260506025803 | 54 | 252 | 6.0 | 9.0 | 0.02 | 0.40 | 0.06 | 88 | 1014.2 |
| 20260506025305 | 54 | 221 | 5.0 | 9.0 | 0.01 | 0.39 | 0.04 | 89 | 1014.2 |
| 20260506023306 | 54 | 238 | 6.0 | 10.0 | 0.01 | 0.39 | 0.04 | 89 | 1014.2 |
| 20260506022305 | 54 | 217 | 6.0 | 10.0 | 0.01 | 0.39 | 0.04 | 89 | 1014.2 |
| 20260506020307 | 54 | 218 | 7.0 | 12.0 | 0.01 | 0.39 | 0.04 | 89 | 1014.2 |
| 20260506015803 | 54 | 234 | 7.0 | 13.0 | 0.01 | 0.39 | 0.04 | 88 | 1014.3 |
| 20260506013804 | 54 | 210 | 6.0 | 12.0 | 0.01 | 0.38 | 0.03 | 88 | 1014.3 |
| 20260506013305 | 55 | 212 | 5.0 | 10.0 | 0.01 | 0.38 | 0.03 | 88 | 1014.3 |
| 20260506012307 | 55 | 206 | 7.0 | 12.0 | 0.01 | 0.38 | 0.03 | 88 | 1014.3 |
| 20260506011806 | 55 | 206 | 5.0 | 10.0 | 0.01 | 0.38 | 0.03 | 88 | 1014.4 |
| 20260506010805 | 55 | 214 | 6.0 | 12.0 | 0.01 | 0.39 | 0.03 | 87 | 1014.4 |
| 20260506010306 | 55 | 214 | 7.0 | 12.0 | 0.01 | 0.39 | 0.03 | 87 | 1014.5 |
| 20260506005804 | 55 | 222 | 7.0 | 13.0 | 0.01 | 0.39 | 0.03 | 87 | 1014.5 |
| 20260506003306 | 55 | 216 | 7.0 | 15.0 | 0.02 | 0.39 | 0.02 | 87 | 1014.8 |
| 20260506001807 | 55 | 221 | 7.0 | 12.0 | 0.02 | 0.39 | 0.02 | 87 | 1014.9 |
| 20260506000803 | 55 | 248 | 6.0 | 16.0 | 0.02 | 0.39 | 0.02 | 87 | 1014.9 |
| 20260505235804 | 55 | 252 | 6.0 | 13.0 | 0.02 | 0.39 | 0.02 | 87 | 1014.9 |
| 20260505234806 | 55 | 204 | 6.0 | 14.0 | 0.02 | 0.39 | 0.02 | 86 | 1015.0 |
| 20260505233803 | 55 | 215 | 6.0 | 12.0 | 0.00 | 0.38 | 0.01 | 86 | 1014.9 |
| 20260505233307 | 55 | 239 | 7.0 | 13.0 | 0.00 | 0.38 | 0.01 | 87 | 1014.9 |
| 20260505232305 | 55 | 229 | 6.0 | 12.0 | 0.00 | 0.38 | 0.01 | 87 | 1015.0 |
| 20260505230804 | 55 | 229 | 8.0 | 14.0 | 0.00 | 0.38 | 0.01 | 87 | 1015.0 |
| 20260505230308 | 55 | 205 | 7.0 | 14.0 | 0.01 | 0.38 | 0.01 | 88 | 1014.9 |
| 20260505225305 | 55 | 219 | 6.0 | 13.0 | 0.02 | 0.39 | 0.01 | 88 | 1015.1 |
| 20260505223804 | 56 | 217 | 6.0 | 12.0 | 0.02 | 0.40 | 0.01 | 88 | 1015.1 |
| 20260505223306 | 56 | 241 | 5.0 | 8.0 | 0.02 | 0.40 | 0.01 | 88 | 1015.1 |
| 20260505222305 | 56 | 240 | 4.0 | 9.0 | 0.02 | 0.41 | 0.01 | 87 | 1015.1 |
| 20260505221303 | 56 | 222 | 4.0 | 8.0 | 0.02 | 0.42 | 0.01 | 86 | 1015.1 |
| 20260505220814 | 56 | 235 | 7.0 | 12.0 | 0.02 | 0.42 | 0.01 | 86 | 1015.1 |
| 20260505220306 | 56 | 266 | 7.0 | 12.0 | 0.02 | 0.42 | 0.00 | 86 | 1015.3 |
| 20260505215305 | 56 | 246 | 5.0 | 12.0 | 0.01 | 0.41 | 0.41 | 86 | 1015.3 |
| 20260505213804 | 56 | 224 | 5.0 | 9.0 | 0.01 | 0.40 | 0.40 | 86 | 1015.3 |
| 20260505212803 | 56 | 229 | 8.0 | 14.0 | 0.01 | 0.40 | 0.40 | 86 | 1015.3 |
| 20260505212305 | 56 | 224 | 5.0 | 10.0 | 0.01 | 0.40 | 0.40 | 86 | 1015.2 |
| 20260505210804 | 57 | 240 | 3.0 | 6.0 | 0.01 | 0.42 | 0.40 | 86 | 1015.1 |
| 20260505210307 | 57 | 226 | 5.0 | 12.0 | 0.01 | 0.42 | 0.40 | 86 | 1015.2 |
| 20260505203307 | 57 | 231 | 5.0 | 10.0 | 0.00 | 0.42 | 0.39 | 85 | 1015.1 |
| 20260505202306 | 57 | 204 | 3.0 | 10.0 | 0.00 | 0.42 | 0.39 | 84 | 1015.1 |
| 20260505201806 | 57 | 211 | 4.0 | 8.0 | 0.00 | 0.42 | 0.39 | 84 | 1015.0 |
| 20260505195305 | 57 | 221 | 5.0 | 8.0 | 0.00 | 0.43 | 0.39 | 80 | 1015.0 |
| 20260505194303 | 58 | 227 | 5.0 | 9.0 | 0.00 | 0.43 | 0.39 | 79 | 1015.0 |
| 20260505191807 | 58 | 268 | 7.0 | 12.0 | 0.00 | 0.43 | 0.39 | 77 | 1014.8 |
| 20260505191304 | 58 | 267 | 5.0 | 9.0 | 0.00 | 0.43 | 0.39 | 77 | 1014.7 |
| 20260505185803 | 58 | 257 | 6.0 | 12.0 | 0.00 | 0.43 | 0.39 | 77 | 1014.7 |
| 20260505185305 | 58 | 252 | 4.0 | 8.0 | 0.00 | 0.43 | 0.39 | 76 | 1014.8 |
| 20260505184806 | 59 | 216 | 7.0 | 13.0 | 0.00 | 0.43 | 0.39 | 76 | 1014.7 |
| 20260505184303 | 59 | 269 | 7.0 | 12.0 | 0.00 | 0.43 | 0.39 | 76 | 1014.8 |
| 20260505183803 | 59 | 270 | 5.0 | 9.0 | 0.00 | 0.43 | 0.39 | 76 | 1014.7 |
| 20260505182803 | 59 | 285 | 7.0 | 12.0 | 0.00 | 0.43 | 0.39 | 76 | 1014.5 |
| 20260505180803 | 59 | 275 | 6.0 | 13.0 | 0.00 | 0.43 | 0.39 | 73 | 1014.5 |
| 20260505180306 | 59 | 298 | 6.0 | 10.0 | 0.00 | 0.43 | 0.39 | 74 | 1014.6 |
| 20260505175803 | 59 | 305 | 9.0 | 14.0 | 0.00 | 0.43 | 0.39 | 75 | 1014.5 |
| 20260505174304 | 60 | 269 | 9.0 | 16.0 | 0.00 | 0.43 | 0.39 | 75 | 1014.7 |
| 20260505173307 | 60 | 355 | 6.0 | 12.0 | 0.00 | 0.43 | 0.39 | 73 | 1014.7 |
| 20260505172803 | 60 | 316 | 9.0 | 15.0 | 0.00 | 0.43 | 0.39 | 73 | 1014.7 |
| 20260505172306 | 60 | 310 | 11.0 | 17.0 | 0.00 | 0.43 | 0.39 | 73 | 1014.7 |
| 20260505171806 | 60 | 287 | 9.0 | 16.0 | 0.00 | 0.43 | 0.39 | 74 | 1014.8 |
| 20260505170803 | 60 | 279 | 9.0 | 13.0 | 0.00 | 0.43 | 0.39 | 73 | 1014.8 |
| 20260505165804 | 60 | 277 | 10.0 | 17.0 | 0.00 | 0.43 | 0.39 | 75 | 1014.7 |
| 20260505164805 | 60 | 327 | 7.0 | 12.0 | 0.00 | 0.43 | 0.39 | 75 | 1014.6 |
| 20260505164304 | 60 | 299 | 10.0 | 15.0 | 0.00 | 0.43 | 0.39 | 75 | 1014.6 |